Fort Knox, KY

6:56 PM EDT on May 23, 2017 (GMT -0400)
Godman Army Air Field

Weather History for KFTK - July, 2013

Change the Weather History Date:

Thursday, July 25, 2013

  Actual Average Record
Temperature  
Mean Temperature 68 °F -  
Max Temperature 79 °F 83 °F 101 °F (2012)
Min Temperature 58 °F 65 °F 54 °F (2014)
Cooling Degree Days 3    
Growing Degree Days 18 (Base 50)    
Moisture  
Dew Point 59 °F    
Average Humidity 73    
Maximum Humidity 94    
Minimum Humidity 50    
Precipitation  
Precipitation 0.00 in - - ()
Sea Level Pressure  
Sea Level Pressure 30.04 in    
Wind  
Wind Speed 6 mph (North)    
Max Wind Speed 9 mph    
Max Gust Speed -    
Visibility 10 miles    
Events      
Averages and records for this station are not official NWS values.
T = Trace of Precipitation, MM = Missing Value Source: NWS Daily Summary

Daily Weather History Graph

Daily Weather History Graph

Search for Another Location

Airport or City:

Trip Planner

Search our weather history database for the weather conditions in past years. The results will help you decide how hot, cold, wet, or windy it might be!

Date:

Astronomy

Jul. 25, 2013 Rise Set
Actual Time 6:41 AM EDT 8:58 PM EDT
Civil Twilight 6:11 AM EDT 9:28 PM EDT
Nautical Twilight 5:35 AM EDT 10:04 PM EDT
Astronomical Twilight 4:55 AM EDT 10:44 PM EDT
Moon 10:44 PM EDT (7/25) 10:05 AM EDT (7/25)
Length of Visible Light 15h 16m
Length of Day
14h 17m
Waning Gibbous, 88% of the Moon is Illuminated
Jul 25
Waning Gibbous
Jul 29
Last Quarter
Aug 6
New
Aug 14
First Quarter
Aug 20
Full

Hourly Weather History & Observations

Time (EDT) Temp. Dew Point Humidity Pressure Visibility Wind Dir Wind Speed Gust Speed Precip Events Conditions
12:58 AM 64.4 °F 59.2 °F 83% 29.98 in 10.0 mi North 8.1 mph - N/A   Clear
1:58 AM 64.9 °F 58.3 °F 79% 29.98 in 10.0 mi North 6.9 mph - N/A   Clear
2:58 AM 63.7 °F 58.5 °F 83% 29.98 in 10.0 mi NNE 5.8 mph - N/A   Clear
3:58 AM 61.9 °F 58.3 °F 88% 29.98 in 10.0 mi NNE 3.5 mph - N/A   Clear
4:58 AM 61.3 °F 57.9 °F 89% 29.98 in 10.0 mi North 5.8 mph - N/A   Clear
5:58 AM 60.6 °F 57.7 °F 90% 30.00 in 10.0 mi NNE 2.3 mph - N/A   Clear
6:58 AM 58.8 °F 57.0 °F 94% 30.02 in 10.0 mi NNE 3.5 mph - N/A   Clear
7:58 AM 62.1 °F 58.1 °F 87% 30.02 in 10.0 mi North 5.8 mph - N/A   Clear
8:58 AM 65.1 °F 58.6 °F 79% 30.03 in 10.0 mi North 5.8 mph - N/A   Clear
9:58 AM 68.0 °F 59.9 °F 75% 30.04 in 10.0 mi NNE 4.6 mph - N/A   Clear
10:58 AM 71.6 °F 61.5 °F 70% 30.05 in 10.0 mi NNW 5.8 mph - N/A   Clear
11:58 AM 73.8 °F 61.7 °F 66% 30.06 in 10.0 mi North 5.8 mph - N/A   Partly Cloudy
12:58 PM 75.7 °F 60.1 °F 58% 30.07 in 10.0 mi NNE 9.2 mph - N/A   Partly Cloudy
1:58 PM 76.3 °F 57.2 °F 52% 30.06 in 10.0 mi NNW 6.9 mph - N/A   Partly Cloudy
2:58 PM 77.4 °F 57.4 °F 50% 30.06 in 10.0 mi NNW 8.1 mph - N/A   Clear
3:58 PM 75.9 °F 57.9 °F 54% 30.06 in 10.0 mi NNW 8.1 mph - N/A   Partly Cloudy
4:58 PM 78.3 °F 59.2 °F 52% 30.06 in 10.0 mi NNW 4.6 mph - N/A   Scattered Clouds
5:58 PM 78.1 °F 59.0 °F 52% 30.05 in 10.0 mi NW 5.8 mph - N/A   Scattered Clouds
6:58 PM 77.5 °F 58.3 °F 51% 30.05 in 10.0 mi North 4.6 mph - N/A   Mostly Cloudy
7:58 PM 74.1 °F 61.5 °F 65% 30.06 in 10.0 mi NW 4.6 mph - N/A   Mostly Cloudy
8:58 PM 69.1 °F 63.1 °F 81% 30.06 in 10.0 mi NNW 4.6 mph - N/A   Scattered Clouds
9:55 PM 66.2 °F 61.3 °F 84% 30.06 in 10.0 mi North 4.6 mph - N/A   Scattered Clouds
10:58 PM 64.4 °F 60.6 °F 88% 30.07 in 10.0 mi North 3.5 mph - N/A   Scattered Clouds
11:58 PM 65.5 °F 59.5 °F 81% 30.08 in 10.0 mi North 5.8 mph - N/A   Clear